Content
SEND FEEDBACK

Daily
Averages
Monthly
Summary
Netherlands

HAARLEM, NETHERLANDS


Home > Europe > Netherlands
Elevation: 62 feet     Latitude: 52 28N     Longitude: 004 35E

WEATHER
 
SELECT A DAY
Number of Records: 301,919;   Date Range: 7/1/96 - 7/20/14
 
SHARE

PRINT THIS DATA

[ ← Previous Day ]
WEATHER ALMANAC - FEBRUARY 20, 2013
[ Next Day → ]
[ °C ]   °F
Weather ElementAverageHighLow
Temperature32.4 °F36 °F (1:00 pm)30 °F (7:00 am)
Dewpoint24.1 °F26.6 °F (1:25 am)20 °F (7:00 pm)
Humidity70.4 %86 % (4:55 am)46 % (7:00 pm)
Barometer30.28 in30.34 in (10:00 pm)30.18 in (1:25 am)
Wind Speed12.5 mph17.3 mph (10:55 am)
Weather ElementAverage
Visibility9.3 mi
Wind DirectionENE (67.2 °)

Weather ElementTotal
Precipitation---
Heating Degree Days32 (Base 65)
Averaged from 47 records on February 20, 2013
WEATHER CONDITIONS BREAKOUT
WIND DIRECTION BREAKOUT
WEATHER BY HOUR - FEBRUARY 20, 2013
[ °C ]   °F
Local TimeTemperatureDewpointHumidityBarometerVisibilityWind DirectionWind SpeedGust SpeedPrecipitationEventsConditions
1:25 AM32.0 °F26.6 °F80 %30.18 in6.2 miENE (70°)10.4 mphPartly Cloudy
1:55 AM32.0 °F26.6 °F80 %30.18 in6.2 miENE (70°)11.5 mphPartly Cloudy
2:25 AM32.0 °F24.8 °F75 %30.18 inENE (70°)10.4 mphClear
2:55 AM32.0 °F24.8 °F75 %30.21 inENE (70°)11.5 mphClear
3:25 AM32.0 °F24.8 °F75 %30.21 inENE (60°)11.5 mphClear
3:55 AM32.0 °F24.8 °F75 %30.21 inENE (60°)12.7 mphClear
4:00 AM32.0 °F25.0 °F66 %30.23 in28.0 miENE (60°)13.4 mphScattered Clouds
4:25 AM32.0 °F26.6 °F80 %30.21 inENE (60°)12.7 mphClear
4:55 AM30.2 °F26.6 °F86 %30.21 inENE (70°)9.2 mphClear
5:25 AM30.2 °F26.6 °F86 %30.24 inENE (70°)15.0 mphClear
5:55 AM30.2 °F24.8 °F80 %30.24 inENE (70°)12.7 mphClear
6:25 AM30.2 °F24.8 °F80 %30.24 inENE (70°)12.7 mphClear
6:55 AM30.2 °F24.8 °F80 %30.24 inENE (70°)12.7 mphClear
7:00 AM30.0 °F24.0 °F72 %30.27 in19.0 miENE (70°)11.2 mphPartly Cloudy
7:25 AM30.2 °F24.8 °F80 %30.27 inENE (70°)12.7 mphClear
7:55 AM30.2 °F23.0 °F75 %30.27 inENE (70°)12.7 mphClear
8:25 AM30.2 °F24.8 °F80 %30.27 inENE (70°)11.5 mphClear
8:55 AM32.0 °F24.8 °F75 %30.30 inENE (70°)13.8 mphClear
9:25 AM32.0 °F24.8 °F75 %30.30 in6.2 miENE (70°)13.8 mphPartly Cloudy
9:55 AM33.8 °F24.8 °F70 %30.30 in6.2 miENE (70°)12.7 mphPartly Cloudy
10:00 AM33.0 °F24.0 °F57 %30.32 in19.0 miENE (70°)13.4 mphPartly Cloudy
10:55 AM33.8 °F24.8 °F70 %30.30 in6.2 miENE (70°)17.3 mphPartly Cloudy
11:25 AM33.8 °F23.0 °F65 %30.30 in6.2 miENE (60°)15.0 mphMostly Cloudy
11:55 AM33.8 °F23.0 °F65 %30.30 in6.2 miENE (60°)13.8 mphMostly Cloudy
12:25 PM35.6 °F24.8 °F65 %30.30 in6.2 miENE (60°)13.8 mphMostly Cloudy
12:55 PM35.6 °F24.8 °F65 %30.30 in6.2 miEast (80°)13.8 mphScattered Clouds
1:00 PM36.0 °F24.0 °F51 %30.33 in22.0 miENE (70°)13.4 mphPartly Cloudy
1:25 PM35.6 °F24.8 °F65 %30.30 in6.2 miNE (50°)13.8 mphScattered Clouds
1:55 PM35.6 °F24.8 °F65 %30.30 in6.2 miENE (60°)12.7 mphMostly Cloudy
2:55 PM35.6 °F23.0 °F60 %30.30 in6.2 miNE (50°)13.8 mphMostly Cloudy
3:25 PM33.8 °F23.0 °F65 %30.30 in6.2 miENE (70°)15.0 mphMostly Cloudy
3:55 PM33.8 °F23.0 °F65 %30.30 in6.2 miENE (70°)13.8 mphMostly Cloudy
4:55 PM33.8 °F21.2 °F60 %30.30 in6.2 miENE (70°)13.8 mphMostly Cloudy
5:55 PM33.8 °F23.0 °F65 %30.30 in6.2 miENE (60°)9.2 mphMostly Cloudy
6:25 PM33.8 °F23.0 °F65 %30.30 in6.2 miENE (70°)11.5 mphMostly Cloudy
6:55 PM33.8 °F21.2 °F60 %30.33 in6.2 miENE (70°)15.0 mphMostly Cloudy
7:00 PM33.0 °F20.0 °F46 %30.33 in28.0 miENE (70°)11.2 mphPartly Cloudy
7:25 PM32.0 °F21.2 °F64 %30.33 in6.2 miENE (60°)13.8 mphMostly Cloudy
7:55 PM33.8 °F21.2 °F60 %30.33 in6.2 miENE (70°)13.8 mphMostly Cloudy
8:25 PM33.8 °F23.0 °F65 %30.33 in6.2 miENE (70°)11.5 mphMostly Cloudy
8:55 PM32.0 °F23.0 °F69 %30.33 in6.2 miENE (60°)11.5 mphPartly Cloudy
9:55 PM32.0 °F24.8 °F75 %30.33 in6.2 miENE (70°)11.5 mphPartly Cloudy
10:00 PM31.0 °F24.0 °F67 %30.34 in22.0 miENE (70°)8.9 mphScattered Clouds
10:25 PM30.2 °F24.8 °F80 %30.33 in6.2 miENE (70°)9.2 mphPartly Cloudy
10:55 PM30.2 °F24.8 °F80 %30.33 in6.2 miEast (80°)9.2 mphScattered Clouds
11:25 PM30.2 °F23.0 °F75 %30.33 in6.2 miENE (70°)10.4 mphPartly Cloudy
11:55 PM30.2 °F23.0 °F75 %30.33 in6.2 miENE (70°)12.7 mphPartly Cloudy
Hourly data recorded from EHAM, located miles away from Haarlem, Netherlands







STORIES FROM OUR PARTNERS